ONEWEB-0176 (48210 NORAD) Tracking and Keplerian Element Data

This shows tracking and keplerian element data for the satellite.

Feedback or suggestion? Click here.




ElementValue
Catalog48210
NameONEWEB-0176
Epoch Orbit177
Epoch Day136.75001157
Epoch Year2021
RAAN305.7607
Inclination87.4204
Eccentricity0.0006489
Argument of Perigee186.8001
Mean Anonmoly53.6349
Mean Motion15.33228317
Decay Rate-0.01383124
L11 48210U 21031A 21136.75001157 -.01383124 00000-0 -47418-1 0 9990
L22 48210 87.4204 305.7607 0006489 186.8001 53.6349 15.33228317 1771

Live tracking and technical data element details for ONEWEB-0176 (NORAD 48210). ONEWEB-0176 can be tracked NOW for your location showing map with azimuth and elevation plus other details from your city location.

Track the satellite on the map from your city or location and see movement details for azimuth, elevation, latitude, longitude, range, height, and movement on the map or in text.







IsCatalogInMostPopularTable: catalog: 48210, numindb: 6
Update: records affected: 1



GetName: 48210 ONEWEB-0176

Hit Count: updated at: Mon, 17 May 2021 15:29:52 GMT